Regional Weather Roundup
Issued by NWS New Orleans/Baton Rouge, LA

Home | Current Version | Previous Version | Graphics & Text | Print | Product List | Glossary On
Versions: 1 2 3 4 5 6 7 8 9 10 11 12 13 14 15 16 17 18 19 20 21 22 23 24 25 26 27 28 29 30 31 32 33 34 35 36 37 38 39 40 41 42 43 44 45 46 47 48 49 50
411
ASUS44 KLIX 310211
RWRLIX
NEW ORLEANS REGIONAL WEATHER ROUNDUP
NATIONAL WEATHER SERVICE NEW ORLEANS LA
900 PM CDT MON MAR 30 2015

NOTE: "FAIR" INDICATES FEW OR NO CLOUDS BELOW 12,000 FEET WITH NO
      SIGNIFICANT WEATHER AND/OR OBSTRUCTIONS TO VISIBILITY.
      SKY/WX - SKY CONDITION AND SIGNIFICANT WEATHER.
      TMP - AIR TEMPERATURE.     DP    - DEWPOINT TEMPERATURE.
      RH  - RELATIVE HUMIDITY.   PRES  - PRESSURE.
      HI  - HEAT INDEX.          WCI   - WIND CHILL INDEX.

*  THESE STATIONS ARE NOT NWS OR FAA STATIONS AND ARE NOT UNDER
   NWS QUALITY CONTROL.

LAZ038-040-048-061>063-065>067-069-310300-
SOUTHEAST LOUISIANA

CITY           SKY/WX    TMP DP  RH WIND       PRES   REMARKS
N.O. AUDUBON     N/A     70  67  92 MISG        N/A
N.O. INTL ARPT CLEAR     71  61  70 SW9       30.15R
N.O. LAKEFRONT CLEAR     75  61  61 SW13      30.15R
SLIDELL        PTCLDY    72  64  76 SW5       30.13R
BATON ROUGE    CLEAR     71  60  68 SW8       30.14R
BOOTHVILLE     CLEAR     72  67  84 SW9       30.17R
BELLE CHASSE   PTCLDY    70  62  76 SW8       30.15R
BOGALUSA*        N/A     69  60  73 CALM      30.14R
GALLIANO*      CLEAR     70  65  82 SW7       30.17R
NEW ROADS*       N/A     71  58  64 SW6       30.14R
GONZALES*        N/A     70  63  77 CALM      30.15R
HAMMOND*       CLEAR     73  59  60 W6        30.16R
HOUMA*         CLEAR     68  64  86 CALM      30.16R
PORT FOURCHON* CLEAR     72  66  83 SW5       30.21R

$$

MSZ070-080>082-310300-
SOUTHERN MISSISSIPPI

CITY           SKY/WX    TMP DP  RH WIND       PRES   REMARKS
MCCOMB         CLEAR     66  57  72 CALM      30.13R
GULFPORT       CLEAR     73  65  75 SW6       30.13R
BILOXI         CLEAR     70  67  90 SW13      30.13R
PASCAGOULA     CLEAR     70  63  78 SW5       30.14R

$$

COASTAL OBSERVATIONS
LAKE AND NEARSHORE STATIONS

STATION/POSITION TIME  TEMP    WIND        PRES    WAVE
                       AIR SEA DIR/SP/G            HT/PER
                 (UTC) (F)     (DEG/KT/KT) (MB)    (FT/S)
PASCAGOULA       0100   71     210/ 14/ 18 1019.7
WAVELAND YACHT   0100   73 68  230/  9/ 12 1020.0
GRAND ISLE       0100          230/  7/ 11 1021.2
SOUTHWEST PASS   0100          200/  6/  6 1022.0
NEW CANAL        0112   75     230/  7/ 10 1020.9
SHELL BEACH      0100   74 71  210/ 13/ 19 1020.6

OFFSHORE STATIONS

STATION/POSITION TIME  TEMP    WIND        PRES    WAVE
                       AIR SEA DIR/SP/G            HT/PER
                 (UTC) (F)     (DEG/KT/KT) (MB)    (FT/S)
64 S DAUPHIN ISL 0150   71 71  210/ 14/ 16 1022.0    3/ 4

$$




USA.gov is the U.S. government's official web portal to all federal, state and local government web resources and services.